| time (UTC) | temp F | wind direction | speed MPH | gust MPH | rain 1hr in | rain 24hr in | rain mn in | humidity % | barometer mb |
| 20260507040334 | 51 | 0 | 0.0 | 5.0 | 0.00 | 0.00 | 0.00 | 32 | 1020.9 |
| 20260507035833 | 51 | 346 | 0.0 | 3.0 | 0.00 | 0.00 | 0.00 | 33 | 1020.8 |
| 20260507035334 | 52 | 338 | 0.0 | 2.0 | 0.00 | 0.00 | 0.00 | 32 | 1020.9 |
| 20260507034833 | 52 | 327 | 0.0 | 2.0 | 0.00 | 0.00 | 0.00 | 32 | 1020.8 |
| 20260507034331 | 52 | 323 | 0.0 | 2.0 | 0.00 | 0.00 | 0.00 | 33 | 1020.8 |
| 20260507033831 | 52 | 323 | 0.0 | 3.0 | 0.00 | 0.00 | 0.00 | 32 | 1020.8 |
| 20260507033330 | 52 | 319 | 0.0 | 3.0 | 0.00 | 0.00 | 0.00 | 32 | 1020.7 |
| 20260507032823 | 52 | 317 | 0.0 | 3.0 | 0.00 | 0.00 | 0.00 | 32 | 1020.5 |
| 20260507032554 | 53 | 300 | 0.0 | 1.0 | 0.00 | 0.00 | 0.00 | 31 | 1020.5 |
| 20260507031824 | 53 | 298 | 0.0 | 2.0 | 0.00 | 0.00 | 0.00 | 30 | 1020.5 |
| 20260507031322 | 54 | 296 | 1.0 | 4.0 | 0.00 | 0.00 | 0.00 | 30 | 1020.4 |
| 20260507030821 | 55 | 296 | 3.0 | 7.0 | 0.00 | 0.00 | 0.00 | 28 | 1020.3 |
| 20260507030551 | 55 | 295 | 3.0 | 7.0 | 0.00 | 0.00 | 0.00 | 28 | 1020.3 |
| 20260507025820 | 56 | 292 | 2.0 | 5.0 | 0.00 | 0.00 | 0.00 | 28 | 1020.2 |
| 20260507025548 | 56 | 292 | 2.0 | 6.0 | 0.00 | 0.00 | 0.00 | 28 | 1020.0 |
| 20260507024817 | 56 | 291 | 3.0 | 7.0 | 0.00 | 0.00 | 0.00 | 28 | 1019.9 |
| 20260507024318 | 56 | 290 | 2.0 | 7.0 | 0.00 | 0.00 | 0.00 | 28 | 1019.9 |
| 20260507023817 | 56 | 290 | 2.0 | 7.0 | 0.00 | 0.00 | 0.00 | 28 | 1019.8 |
| 20260507023317 | 57 | 290 | 2.0 | 7.0 | 0.00 | 0.00 | 0.00 | 28 | 1019.8 |
| 20260507023049 | 57 | 285 | 1.0 | 4.0 | 0.00 | 0.00 | 0.00 | 31 | 1019.7 |
| 20260507022317 | 57 | 285 | 1.0 | 4.0 | 0.00 | 0.00 | 0.00 | 30 | 1019.7 |
| 20260507021818 | 58 | 285 | 0.0 | 2.0 | 0.00 | 0.00 | 0.00 | 31 | 1019.5 |
| 20260507021318 | 58 | 285 | 0.0 | 3.0 | 0.00 | 0.00 | 0.00 | 31 | 1019.4 |
| 20260507020818 | 59 | 285 | 0.0 | 3.0 | 0.00 | 0.00 | 0.00 | 30 | 1019.4 |
| 20260507020318 | 59 | 285 | 0.0 | 3.0 | 0.00 | 0.00 | 0.00 | 29 | 1019.4 |
| 20260507015817 | 60 | 285 | 0.0 | 3.0 | 0.00 | 0.00 | 0.00 | 29 | 1019.4 |
| 20260507015319 | 60 | 285 | 2.0 | 9.0 | 0.00 | 0.00 | 0.00 | 29 | 1019.3 |
| 20260507014817 | 60 | 285 | 3.0 | 9.0 | 0.00 | 0.00 | 0.00 | 28 | 1019.4 |
| 20260507014317 | 60 | 284 | 2.0 | 6.0 | 0.00 | 0.00 | 0.00 | 27 | 1019.3 |
| 20260507013818 | 61 | 283 | 2.0 | 8.0 | 0.00 | 0.00 | 0.00 | 27 | 1019.2 |
| 20260507013318 | 62 | 282 | 3.0 | 9.0 | 0.00 | 0.00 | 0.00 | 26 | 1019.2 |
| 20260507012815 | 63 | 306 | 2.0 | 9.0 | 0.00 | 0.00 | 0.00 | 25 | 1019.2 |
| 20260507012315 | 65 | 311 | 1.0 | 5.0 | 0.00 | 0.00 | 0.00 | 23 | 1019.0 |
| 20260507012047 | 67 | 316 | 0.0 | 3.0 | 0.00 | 0.00 | 0.00 | 23 | 1019.0 |
| 20260507011316 | 68 | 317 | 0.0 | 1.0 | 0.00 | 0.00 | 0.00 | 22 | 1019.2 |
| 20260507010815 | 68 | 317 | 0.0 | 3.0 | 0.00 | 0.00 | 0.00 | 23 | 1018.9 |
| 20260507010314 | 69 | 317 | 0.0 | 3.0 | 0.00 | 0.00 | 0.00 | 22 | 1019.0 |
| 20260507005814 | 68 | 316 | 0.0 | 0.0 | 0.00 | 0.00 | 0.00 | 22 | 1018.8 |
| 20260507005313 | 66 | 316 | 0.0 | 3.0 | 0.00 | 0.00 | 0.00 | 23 | 1018.8 |
| 20260507004814 | 64 | 316 | 0.0 | 3.0 | 0.00 | 0.00 | 0.00 | 25 | 1018.7 |
| 20260507004314 | 62 | 315 | 2.0 | 6.0 | 0.00 | 0.00 | 0.00 | 26 | 1018.8 |
| 20260507004043 | 61 | 315 | 4.0 | 7.0 | 0.00 | 0.00 | 0.00 | 27 | 1018.7 |
| 20260507003311 | 61 | 313 | 4.0 | 8.0 | 0.00 | 0.00 | 0.00 | 27 | 1018.7 |
| 20260507002811 | 61 | 313 | 4.0 | 11.0 | 0.00 | 0.00 | 0.00 | 27 | 1018.7 |
| 20260507002308 | 62 | 316 | 4.0 | 11.0 | 0.00 | 0.00 | 0.00 | 26 | 1018.7 |
| 20260507001805 | 62 | 355 | 3.0 | 10.0 | 0.00 | 0.00 | 0.00 | 26 | 1018.5 |
| 20260507001303 | 62 | 269 | 1.0 | 9.0 | 0.00 | 0.00 | 0.00 | 26 | 1018.5 |
| 20260507000804 | 61 | 268 | 2.0 | 9.0 | 0.00 | 0.01 | 0.00 | 26 | 1018.5 |
| 20260507000302 | 60 | 323 | 5.0 | 10.0 | 0.00 | 0.01 | 0.00 | 26 | 1018.4 |
| 20260506235800 | 60 | 323 | 7.0 | 16.0 | 0.00 | 0.01 | 0.00 | 26 | 1018.4 |
| 20260506235253 | 61 | 321 | 6.0 | 16.0 | 0.00 | 0.02 | 0.00 | 25 | 1018.4 |
| 20260506234753 | 63 | 290 | 6.0 | 12.0 | 0.00 | 0.02 | 0.00 | 25 | 1018.3 |
| 20260506234249 | 63 | 290 | 8.0 | 16.0 | 0.00 | 0.02 | 0.00 | 25 | 1018.2 |
| 20260506233749 | 62 | 300 | 8.0 | 16.0 | 0.00 | 0.02 | 0.00 | 24 | 1018.3 |
| 20260506233249 | 62 | 290 | 6.0 | 14.0 | 0.00 | 0.02 | 0.00 | 24 | 1018.3 |
| 20260506232749 | 62 | 235 | 7.0 | 15.0 | 0.00 | 0.02 | 0.00 | 24 | 1018.2 |
| 20260506232250 | 62 | 305 | 7.0 | 17.0 | 0.00 | 0.02 | 0.00 | 24 | 1018.3 |
| 20260506231751 | 62 | 301 | 7.0 | 17.0 | 0.00 | 0.02 | 0.00 | 24 | 1018.3 |
| 20260506231249 | 62 | 265 | 7.0 | 14.0 | 0.00 | 0.02 | 0.00 | 23 | 1018.2 |
| 20260506230749 | 63 | 271 | 7.0 | 14.0 | 0.00 | 0.03 | 0.00 | 23 | 1018.2 |
| 20260506230249 | 63 | 306 | 8.0 | 14.0 | 0.00 | 0.03 | 0.00 | 23 | 1018.2 |
| 20260506225749 | 62 | 313 | 8.0 | 16.0 | 0.00 | 0.03 | 0.00 | 23 | 1018.2 |
| 20260506225249 | 62 | 313 | 8.0 | 20.0 | 0.00 | 0.03 | 0.00 | 23 | 1018.2 |
| 20260506224750 | 62 | 243 | 7.0 | 20.0 | 0.00 | 0.04 | 0.00 | 23 | 1018.0 |
| 20260506224520 | 62 | 318 | 7.0 | 14.0 | 0.00 | 0.04 | 0.00 | 25 | 1018.2 |
| 20260506223749 | 61 | 204 | 6.0 | 14.0 | 0.00 | 0.04 | 0.00 | 24 | 1018.0 |
| 20260506223249 | 62 | 306 | 7.0 | 18.0 | 0.00 | 0.04 | 0.00 | 24 | 1018.0 |
| 20260506222749 | 62 | 271 | 8.0 | 18.0 | 0.00 | 0.05 | 0.00 | 24 | 1018.2 |
| 20260506222249 | 62 | 277 | 7.0 | 16.0 | 0.00 | 0.05 | 0.00 | 24 | 1018.0 |
| 20260506222018 | 62 | 292 | 6.0 | 14.0 | 0.00 | 0.05 | 0.00 | 25 | 1018.2 |
| 20260506221247 | 62 | 250 | 4.0 | 14.0 | 0.00 | 0.06 | 0.00 | 24 | 1018.3 |
| 20260506220747 | 62 | 343 | 6.0 | 14.0 | 0.00 | 0.06 | 0.00 | 26 | 1018.3 |
| 20260506220247 | 61 | 348 | 9.0 | 17.0 | 0.00 | 0.07 | 0.00 | 25 | 1018.4 |
| 20260506215747 | 61 | 284 | 8.0 | 17.0 | 0.00 | 0.07 | 0.00 | 25 | 1018.4 |
| 20260506215245 | 61 | 292 | 8.0 | 17.0 | 0.00 | 0.07 | 0.00 | 25 | 1018.4 |
| 20260506214745 | 61 | 297 | 9.0 | 16.0 | 0.00 | 0.08 | 0.00 | 26 | 1018.5 |
| 20260506214245 | 61 | 249 | 8.0 | 15.0 | 0.00 | 0.08 | 0.00 | 26 | 1018.5 |
| 20260506213745 | 60 | 0 | 9.0 | 20.0 | 0.00 | 0.09 | 0.00 | 27 | 1018.7 |
| 20260506213245 | 60 | 284 | 10.0 | 20.0 | 0.00 | 0.09 | 0.00 | 28 | 1018.7 |
| 20260506212745 | 60 | 313 | 9.0 | 17.0 | 0.00 | 0.09 | 0.00 | 28 | 1018.5 |
| 20260506212246 | 60 | 277 | 8.0 | 17.0 | 0.00 | 0.09 | 0.00 | 27 | 1018.7 |
| 20260506211743 | 60 | 297 | 8.0 | 21.0 | 0.00 | 0.09 | 0.00 | 28 | 1018.5 |
| 20260506211241 | 60 | 347 | 8.0 | 21.0 | 0.00 | 0.09 | 0.00 | 27 | 1018.7 |
| 20260506210741 | 60 | 273 | 8.0 | 20.0 | 0.00 | 0.09 | 0.00 | 30 | 1018.5 |
| 20260506210241 | 60 | 301 | 7.0 | 20.0 | 0.00 | 0.09 | 0.00 | 30 | 1018.5 |
| 20260506210012 | 60 | 319 | 7.0 | 15.0 | 0.00 | 0.09 | 0.00 | 29 | 1018.7 |
| 20260506205241 | 59 | 294 | 10.0 | 23.0 | 0.00 | 0.09 | 0.00 | 30 | 1018.7 |
| 20260506204740 | 58 | 304 | 9.0 | 23.0 | 0.00 | 0.09 | 0.00 | 31 | 1018.5 |
| 20260506204237 | 59 | 308 | 6.0 | 16.0 | 0.00 | 0.09 | 0.00 | 31 | 1018.5 |
| 20260506203737 | 59 | 275 | 8.0 | 16.0 | 0.00 | 0.09 | 0.00 | 31 | 1018.7 |
| 20260506203237 | 59 | 266 | 9.0 | 23.0 | 0.00 | 0.09 | 0.00 | 29 | 1018.5 |
| 20260506202738 | 60 | 306 | 8.0 | 23.0 | 0.00 | 0.09 | 0.00 | 31 | 1018.7 |
| 20260506202237 | 60 | 252 | 7.0 | 16.0 | 0.00 | 0.09 | 0.00 | 30 | 1018.7 |
| 20260506201733 | 60 | 290 | 6.0 | 16.0 | 0.00 | 0.09 | 0.00 | 29 | 1018.7 |
| 20260506201233 | 60 | 300 | 5.0 | 16.0 | 0.00 | 0.09 | 0.00 | 29 | 1018.5 |
| 20260506200733 | 60 | 268 | 6.0 | 21.0 | 0.00 | 0.09 | 0.00 | 29 | 1018.5 |
| 20260506200234 | 58 | 0 | 8.0 | 21.0 | 0.00 | 0.09 | 0.00 | 29 | 1018.5 |
| 20260506195734 | 58 | 269 | 8.0 | 19.0 | 0.00 | 0.09 | 0.00 | 28 | 1018.5 |
| 20260506195233 | 58 | 235 | 9.0 | 20.0 | 0.00 | 0.09 | 0.00 | 29 | 1018.5 |
| 20260506195005 | 58 | 0 | 7.0 | 20.0 | 0.00 | 0.09 | 0.00 | 29 | 1018.5 |
| 20260506194840 | 57 | 246 | 8.0 | 18.0 | 0.00 | 0.09 | 0.00 | 31 | 1018.5 |
| 20260506194504 | 58 | 301 | 5.0 | 13.0 | 0.00 | 0.09 | 0.00 | 30 | 1018.7 |
| 20260506193233 | 57 | 310 | 10.0 | 25.0 | 0.00 | 0.09 | 0.00 | 31 | 1018.7 |
| 20260506192739 | 57 | 277 | 8.0 | 19.0 | 0.00 | 0.09 | 0.00 | 32 | 1018.5 |
| 20260506192732 | 57 | 288 | 11.0 | 25.0 | 0.00 | 0.09 | 0.00 | 31 | 1018.5 |
| 20260506192233 | 57 | 327 | 9.0 | 22.0 | 0.00 | 0.09 | 0.00 | 33 | 1018.5 |
| 20260506191504 | 57 | 290 | 7.0 | 19.0 | 0.00 | 0.09 | 0.00 | 31 | 1018.5 |
| 20260506190733 | 57 | 251 | 8.0 | 14.0 | 0.00 | 0.09 | 0.00 | 32 | 1018.4 |
| 20260506190231 | 57 | 261 | 10.0 | 25.0 | 0.00 | 0.09 | 0.00 | 31 | 1018.5 |
| 20260506185731 | 57 | 306 | 8.0 | 25.0 | 0.00 | 0.09 | 0.00 | 33 | 1018.5 |
| 20260506185231 | 57 | 280 | 6.0 | 13.0 | 0.00 | 0.09 | 0.00 | 35 | 1018.4 |
| 20260506185002 | 57 | 275 | 7.0 | 15.0 | 0.00 | 0.09 | 0.00 | 33 | 1018.4 |
| 20260506184231 | 57 | 286 | 6.0 | 15.0 | 0.00 | 0.09 | 0.00 | 35 | 1018.5 |
| 20260506184003 | 56 | 255 | 5.0 | 10.0 | 0.00 | 0.09 | 0.00 | 36 | 1018.4 |
| 20260506183231 | 56 | 295 | 6.0 | 15.0 | 0.00 | 0.09 | 0.00 | 37 | 1018.5 |
| 20260506182730 | 55 | 252 | 6.0 | 15.0 | 0.00 | 0.09 | 0.00 | 36 | 1018.5 |
| 20260506182456 | 55 | 238 | 6.0 | 13.0 | 0.00 | 0.09 | 0.00 | 36 | 1018.7 |
| 20260506181723 | 55 | 275 | 7.0 | 15.0 | 0.00 | 0.09 | 0.00 | 38 | 1018.5 |
| 20260506181222 | 54 | 311 | 8.0 | 23.0 | 0.00 | 0.09 | 0.00 | 39 | 1018.5 |
| 20260506180720 | 54 | 301 | 8.0 | 23.0 | 0.00 | 0.09 | 0.00 | 38 | 1018.7 |
| 20260506180221 | 54 | 350 | 8.0 | 15.0 | 0.00 | 0.09 | 0.00 | 38 | 1018.7 |
| 20260506175721 | 53 | 304 | 9.0 | 16.0 | 0.00 | 0.09 | 0.00 | 38 | 1018.7 |
| 20260506175451 | 53 | 271 | 8.0 | 16.0 | 0.00 | 0.09 | 0.00 | 39 | 1018.5 |
| 20260506174721 | 54 | 331 | 6.0 | 13.0 | 0.00 | 0.09 | 0.00 | 38 | 1018.5 |
| 20260506174221 | 54 | 270 | 7.0 | 18.0 | 0.00 | 0.09 | 0.00 | 41 | 1018.5 |
| 20260506173721 | 53 | 292 | 8.0 | 18.0 | 0.00 | 0.09 | 0.00 | 41 | 1018.4 |
| 20260506173451 | 53 | 306 | 7.0 | 16.0 | 0.00 | 0.09 | 0.00 | 40 | 1018.5 |
| 20260506172725 | 53 | 250 | 8.0 | 18.0 | 0.00 | 0.09 | 0.00 | 39 | 1018.4 |
| 20260506172721 | 53 | 303 | 8.0 | 18.0 | 0.00 | 0.09 | 0.00 | 41 | 1018.5 |
| 20260506171721 | 53 | 315 | 6.0 | 15.0 | 0.00 | 0.09 | 0.00 | 41 | 1018.3 |
| 20260506171221 | 52 | 315 | 8.0 | 17.0 | 0.00 | 0.09 | 0.00 | 42 | 1018.2 |
| 20260506170720 | 52 | 255 | 8.0 | 17.0 | 0.00 | 0.09 | 0.00 | 41 | 1018.2 |
| 20260506170221 | 52 | 220 | 6.0 | 16.0 | 0.00 | 0.09 | 0.00 | 41 | 1018.0 |
| 20260506165721 | 52 | 304 | 7.0 | 15.0 | 0.00 | 0.09 | 0.00 | 42 | 1018.0 |
| 20260506165221 | 51 | 251 | 8.0 | 18.0 | 0.00 | 0.09 | 0.00 | 42 | 1018.2 |
| 20260506164721 | 51 | 282 | 8.0 | 18.0 | 0.00 | 0.09 | 0.00 | 43 | 1018.2 |
| 20260506164220 | 50 | 282 | 9.0 | 16.0 | 0.00 | 0.09 | 0.00 | 42 | 1018.0 |
| 20260506163719 | 50 | 296 | 10.0 | 19.0 | 0.00 | 0.09 | 0.00 | 42 | 1017.9 |
| 20260506163450 | 50 | 302 | 11.0 | 19.0 | 0.00 | 0.09 | 0.00 | 42 | 1017.8 |
| 20260506162718 | 50 | 287 | 9.0 | 19.0 | 0.00 | 0.09 | 0.00 | 43 | 1017.8 |
| 20260506162449 | 50 | 318 | 8.0 | 17.0 | 0.00 | 0.09 | 0.00 | 44 | 1017.8 |
| 20260506161719 | 49 | 301 | 8.0 | 18.0 | 0.00 | 0.09 | 0.00 | 44 | 1017.8 |
| 20260506161219 | 49 | 295 | 8.0 | 16.0 | 0.00 | 0.09 | 0.00 | 45 | 1017.8 |
| 20260506160718 | 49 | 261 | 8.0 | 15.0 | 0.00 | 0.09 | 0.00 | 46 | 1017.7 |
| 20260506160444 | 48 | 274 | 8.0 | 15.0 | 0.00 | 0.09 | 0.00 | 46 | 1017.8 |
| 20260506155713 | 48 | 277 | 7.0 | 18.0 | 0.00 | 0.09 | 0.00 | 46 | 1017.7 |
| 20260506155443 | 48 | 321 | 7.0 | 18.0 | 0.00 | 0.09 | 0.00 | 47 | 1017.7 |
| 20260506154713 | 47 | 258 | 7.0 | 15.0 | 0.00 | 0.09 | 0.00 | 47 | 1017.7 |
| 20260506154213 | 47 | 277 | 7.0 | 15.0 | 0.00 | 0.09 | 0.00 | 48 | 1017.7 |
| 20260506153713 | 47 | 252 | 7.0 | 16.0 | 0.00 | 0.09 | 0.00 | 50 | 1017.7 |
| 20260506153212 | 47 | 278 | 7.0 | 16.0 | 0.00 | 0.09 | 0.00 | 48 | 1017.7 |
| 20260506152712 | 46 | 265 | 7.0 | 19.0 | 0.00 | 0.09 | 0.00 | 50 | 1017.7 |
| 20260506152212 | 46 | 257 | 7.0 | 19.0 | 0.00 | 0.09 | 0.00 | 50 | 1017.7 |
| 20260506151944 | 46 | 269 | 5.0 | 14.0 | 0.00 | 0.09 | 0.00 | 51 | 1017.7 |
| 20260506151213 | 45 | 276 | 4.0 | 12.0 | 0.00 | 0.09 | 0.00 | 53 | 1017.6 |
| 20260506150713 | 45 | 285 | 5.0 | 12.0 | 0.00 | 0.09 | 0.00 | 53 | 1017.6 |
| 20260506150212 | 44 | 277 | 6.0 | 12.0 | 0.00 | 0.09 | 0.00 | 53 | 1017.6 |
| 20260506145710 | 44 | 251 | 6.0 | 12.0 | 0.00 | 0.09 | 0.00 | 54 | 1017.4 |
| 20260506145442 | 44 | 273 | 7.0 | 12.0 | 0.00 | 0.09 | 0.00 | 54 | 1017.4 |
| 20260506144710 | 44 | 248 | 7.0 | 12.0 | 0.00 | 0.09 | 0.00 | 54 | 1017.4 |
| 20260506144208 | 43 | 261 | 7.0 | 14.0 | 0.00 | 0.09 | 0.00 | 55 | 1017.4 |
| 20260506143709 | 43 | 269 | 6.0 | 14.0 | 0.00 | 0.09 | 0.00 | 54 | 1017.4 |
| 20260506143208 | 43 | 268 | 5.0 | 11.0 | 0.00 | 0.09 | 0.00 | 56 | 1017.4 |
| 20260506142707 | 43 | 277 | 6.0 | 14.0 | 0.00 | 0.09 | 0.00 | 56 | 1017.4 |
| 20260506142206 | 42 | 292 | 6.0 | 14.0 | 0.00 | 0.09 | 0.00 | 56 | 1017.3 |
| 20260506141706 | 42 | 289 | 4.0 | 13.0 | 0.00 | 0.09 | 0.00 | 57 | 1017.3 |
| 20260506141437 | 42 | 293 | 3.0 | 10.0 | 0.00 | 0.09 | 0.00 | 59 | 1017.2 |
| 20260506140706 | 42 | 310 | 3.0 | 10.0 | 0.00 | 0.09 | 0.00 | 58 | 1017.2 |
| 20260506140437 | 42 | 278 | 3.0 | 10.0 | 0.00 | 0.09 | 0.00 | 60 | 1017.1 |
| 20260506135706 | 41 | 257 | 4.0 | 10.0 | 0.00 | 0.09 | 0.00 | 60 | 1017.1 |
| 20260506135205 | 41 | 306 | 4.0 | 10.0 | 0.00 | 0.09 | 0.00 | 60 | 1017.2 |
| 20260506134704 | 41 | 276 | 3.0 | 7.0 | 0.00 | 0.09 | 0.00 | 61 | 1017.1 |
| 20260506134202 | 40 | 311 | 3.0 | 7.0 | 0.00 | 0.09 | 0.00 | 61 | 1017.1 |
| 20260506133702 | 40 | 278 | 3.0 | 6.0 | 0.00 | 0.09 | 0.00 | 62 | 1016.9 |
| 20260506133202 | 40 | 291 | 3.0 | 8.0 | 0.00 | 0.09 | 0.00 | 62 | 1016.9 |
| 20260506132702 | 39 | 300 | 3.0 | 8.0 | 0.00 | 0.09 | 0.00 | 63 | 1016.9 |
| 20260506132202 | 39 | 283 | 3.0 | 7.0 | 0.00 | 0.09 | 0.00 | 64 | 1016.9 |
| 20260506131703 | 38 | 286 | 3.0 | 7.0 | 0.00 | 0.09 | 0.00 | 65 | 1016.9 |
| 20260506131202 | 38 | 279 | 3.0 | 7.0 | 0.00 | 0.09 | 0.00 | 65 | 1016.8 |
| 20260506130702 | 38 | 281 | 3.0 | 7.0 | 0.00 | 0.09 | 0.00 | 66 | 1016.8 |
| 20260506130432 | 37 | 281 | 3.0 | 5.0 | 0.00 | 0.09 | 0.00 | 66 | 1016.8 |
| 20260506125702 | 37 | 276 | 3.0 | 5.0 | 0.00 | 0.09 | 0.00 | 66 | 1016.8 |
| 20260506125202 | 37 | 279 | 3.0 | 5.0 | 0.00 | 0.09 | 0.00 | 67 | 1016.7 |
| 20260506124702 | 37 | 275 | 3.0 | 5.0 | 0.00 | 0.09 | 0.00 | 67 | 1016.8 |
| 20260506124202 | 37 | 284 | 3.0 | 6.0 | 0.00 | 0.09 | 0.00 | 67 | 1016.7 |
| 20260506123700 | 37 | 290 | 3.0 | 6.0 | 0.00 | 0.09 | 0.00 | 67 | 1016.6 |
| 20260506123200 | 37 | 269 | 3.0 | 8.0 | 0.00 | 0.09 | 0.00 | 68 | 1016.6 |
| 20260506122700 | 37 | 302 | 3.0 | 8.0 | 0.00 | 0.09 | 0.00 | 68 | 1016.4 |
| 20260506122158 | 36 | 280 | 3.0 | 8.0 | 0.00 | 0.09 | 0.00 | 69 | 1016.4 |
| 20260506121700 | 36 | 304 | 3.0 | 8.0 | 0.00 | 0.09 | 0.00 | 69 | 1016.3 |
| 20260506121154 | 36 | 288 | 3.0 | 5.0 | 0.00 | 0.09 | 0.00 | 69 | 1016.2 |
| 20260506120654 | 36 | 280 | 3.0 | 5.0 | 0.00 | 0.09 | 0.00 | 69 | 1016.1 |
| 20260506120154 | 36 | 287 | 2.0 | 5.0 | 0.00 | 0.09 | 0.00 | 68 | 1016.1 |
| 20260506115654 | 37 | 284 | 2.0 | 4.0 | 0.00 | 0.09 | 0.00 | 68 | 1016.1 |
| 20260506115425 | 37 | 281 | 2.0 | 5.0 | 0.00 | 0.09 | 0.00 | 68 | 1016.1 |
| 20260506114654 | 37 | 280 | 3.0 | 6.0 | 0.00 | 0.09 | 0.00 | 68 | 1016.2 |
| 20260506114423 | 37 | 275 | 3.0 | 9.0 | 0.00 | 0.09 | 0.00 | 68 | 1016.1 |
| 20260506113652 | 37 | 277 | 4.0 | 9.0 | 0.00 | 0.09 | 0.00 | 68 | 1016.1 |
| 20260506113422 | 37 | 264 | 3.0 | 7.0 | 0.00 | 0.09 | 0.00 | 68 | 1016.1 |
| 20260506112652 | 37 | 299 | 3.0 | 7.0 | 0.00 | 0.09 | 0.00 | 68 | 1016.2 |
| 20260506112152 | 37 | 272 | 4.0 | 8.0 | 0.00 | 0.09 | 0.00 | 68 | 1016.1 |
| 20260506111652 | 37 | 279 | 4.0 | 8.0 | 0.00 | 0.09 | 0.00 | 68 | 1015.9 |
| 20260506111150 | 37 | 265 | 4.0 | 8.0 | 0.00 | 0.09 | 0.00 | 68 | 1015.9 |
| 20260506110918 | 37 | 273 | 4.0 | 8.0 | 0.00 | 0.09 | 0.00 | 68 | 1015.9 |
| 20260506110419 | 37 | 257 | 4.0 | 8.0 | 0.00 | 0.09 | 0.00 | 68 | 1015.9 |
| 20260506105648 | 37 | 262 | 4.0 | 8.0 | 0.00 | 0.09 | 0.00 | 68 | 1016.1 |
| 20260506105148 | 37 | 275 | 4.0 | 9.0 | 0.00 | 0.09 | 0.00 | 69 | 1015.9 |
| 20260506104649 | 37 | 277 | 3.0 | 9.0 | 0.00 | 0.09 | 0.00 | 69 | 1015.8 |
| 20260506104149 | 37 | 270 | 2.0 | 6.0 | 0.00 | 0.09 | 0.00 | 69 | 1015.8 |
| 20260506103648 | 37 | 272 | 2.0 | 5.0 | 0.00 | 0.09 | 0.00 | 69 | 1015.8 |
| 20260506103148 | 37 | 264 | 3.0 | 5.0 | 0.00 | 0.09 | 0.00 | 69 | 1015.7 |
| 20260506102920 | 37 | 263 | 3.0 | 5.0 | 0.00 | 0.09 | 0.00 | 69 | 1015.6 |
| 20260506102148 | 37 | 268 | 3.0 | 5.0 | 0.00 | 0.09 | 0.00 | 69 | 1015.6 |
| 20260506101647 | 37 | 268 | 3.0 | 5.0 | 0.00 | 0.09 | 0.00 | 69 | 1015.6 |
| 20260506101148 | 37 | 271 | 2.0 | 4.0 | 0.00 | 0.09 | 0.00 | 70 | 1015.6 |
| 20260506100919 | 37 | 269 | 2.0 | 5.0 | 0.00 | 0.09 | 0.00 | 70 | 1015.6 |
| 20260506100144 | 37 | 275 | 2.0 | 5.0 | 0.00 | 0.09 | 0.00 | 70 | 1015.4 |
| 20260506095644 | 37 | 296 | 2.0 | 5.0 | 0.00 | 0.09 | 0.00 | 69 | 1015.4 |
| 20260506095144 | 37 | 274 | 3.0 | 7.0 | 0.00 | 0.09 | 0.00 | 69 | 1015.4 |
| 20260506094642 | 37 | 273 | 3.0 | 7.0 | 0.00 | 0.09 | 0.00 | 69 | 1015.4 |
| 20260506094141 | 37 | 267 | 4.0 | 7.0 | 0.00 | 0.09 | 0.00 | 69 | 1015.4 |
| 20260506093641 | 37 | 278 | 4.0 | 7.0 | 0.00 | 0.09 | 0.00 | 69 | 1015.3 |
| 20260506093141 | 37 | 275 | 4.0 | 7.0 | 0.00 | 0.09 | 0.00 | 69 | 1015.3 |
| 20260506092642 | 37 | 268 | 3.0 | 7.0 | 0.00 | 0.09 | 0.00 | 70 | 1015.3 |
| 20260506092142 | 36 | 270 | 3.0 | 7.0 | 0.00 | 0.09 | 0.00 | 70 | 1015.3 |
| 20260506091642 | 36 | 277 | 3.0 | 5.0 | 0.00 | 0.09 | 0.00 | 70 | 1015.3 |
| 20260506091518 | 36 | 271 | 2.0 | 5.0 | 0.00 | 0.09 | 0.00 | 70 | 1015.6 |
| 20260506091413 | 36 | 281 | 2.0 | 5.0 | 0.00 | 0.09 | 0.00 | 70 | 1015.6 |
| 20260506090413 | 36 | 281 | 2.0 | 4.0 | 0.00 | 0.09 | 0.00 | 70 | 1015.6 |
| 20260506085640 | 36 | 278 | 2.0 | 4.0 | 0.00 | 0.09 | 0.00 | 70 | 1015.6 |
| 20260506085140 | 36 | 272 | 2.0 | 4.0 | 0.00 | 0.09 | 0.00 | 70 | 1015.4 |
| 20260506084909 | 36 | 274 | 3.0 | 4.0 | 0.00 | 0.09 | 0.00 | 70 | 1015.6 |
| 20260506084138 | 36 | 270 | 3.0 | 5.0 | 0.00 | 0.09 | 0.00 | 69 | 1015.4 |
| 20260506083636 | 37 | 274 | 3.0 | 6.0 | 0.00 | 0.09 | 0.00 | 69 | 1015.6 |
| 20260506083136 | 37 | 279 | 3.0 | 6.0 | 0.00 | 0.09 | 0.00 | 69 | 1015.6 |
| 20260506082636 | 37 | 269 | 3.0 | 7.0 | 0.00 | 0.09 | 0.00 | 68 | 1015.6 |
| 20260506082135 | 37 | 261 | 4.0 | 7.0 | 0.00 | 0.09 | 0.00 | 68 | 1015.7 |
| 20260506081636 | 37 | 275 | 3.0 | 6.0 | 0.00 | 0.09 | 0.00 | 69 | 1015.7 |
| 20260506081406 | 37 | 293 | 3.0 | 6.0 | 0.00 | 0.09 | 0.00 | 69 | 1015.7 |
| 20260506080636 | 37 | 270 | 3.0 | 6.0 | 0.00 | 0.09 | 0.00 | 69 | 1015.7 |
| 20260506080406 | 37 | 273 | 3.0 | 7.0 | 0.00 | 0.09 | 0.00 | 69 | 1015.7 |
| 20260506073135 | 37 | 288 | 3.0 | 7.0 | 0.00 | 0.09 | 0.00 | 69 | 1015.8 |
| 20260506072635 | 37 | 290 | 3.0 | 9.0 | 0.00 | 0.09 | 0.00 | 70 | 1015.8 |
| 20260506072135 | 37 | 282 | 4.0 | 9.0 | 0.00 | 0.09 | 0.00 | 71 | 1015.7 |
| 20260506071636 | 37 | 288 | 4.0 | 7.0 | 0.00 | 0.09 | 0.00 | 71 | 1015.7 |
| 20260506071135 | 36 | 277 | 3.0 | 7.0 | 0.00 | 0.09 | 0.00 | 72 | 1015.7 |
| 20260506070906 | 36 | 283 | 3.0 | 6.0 | 0.00 | 0.09 | 0.00 | 73 | 1015.7 |
| 20260506070133 | 36 | 288 | 3.0 | 6.0 | 0.00 | 0.09 | 0.00 | 74 | 1015.7 |
| 20260506062129 | 38 | 262 | 3.0 | 6.0 | 0.00 | 0.09 | 0.09 | 72 | 1015.3 |
| 20260506061629 | 38 | 281 | 3.0 | 6.0 | 0.00 | 0.09 | 0.09 | 71 | 1015.3 |
| 20260506061129 | 38 | 270 | 3.0 | 8.0 | 0.00 | 0.09 | 0.09 | 72 | 1015.4 |
| 20260506060630 | 38 | 253 | 4.0 | 8.0 | 0.00 | 0.09 | 0.09 | 72 | 1015.3 |
| 20260506060129 | 38 | 234 | 4.0 | 8.0 | 0.00 | 0.09 | 0.09 | 72 | 1015.2 |
| 20260506051127 | 38 | 264 | 4.0 | 7.0 | 0.00 | 0.09 | 0.09 | 76 | 1015.2 |
| 20260506050627 | 38 | 269 | 4.0 | 7.0 | 0.00 | 0.09 | 0.09 | 76 | 1015.2 |
| 20260506050127 | 38 | 277 | 4.0 | 7.0 | 0.00 | 0.09 | 0.09 | 76 | 1015.2 |
| 20260506045125 | 38 | 269 | 4.0 | 9.0 | 0.00 | 0.09 | 0.09 | 78 | 1015.1 |
| 20260506044625 | 38 | 281 | 4.0 | 9.0 | 0.00 | 0.09 | 0.09 | 79 | 1015.2 |
| 20260506044125 | 38 | 276 | 4.0 | 8.0 | 0.00 | 0.09 | 0.09 | 79 | 1015.1 |
| 20260506043856 | 38 | 295 | 4.0 | 9.0 | 0.00 | 0.09 | 0.09 | 79 | 1015.1 |
| 20260506043126 | 38 | 294 | 4.0 | 9.0 | 0.00 | 0.09 | 0.09 | 80 | 1014.9 |
| 20260506042625 | 38 | 298 | 4.0 | 8.0 | 0.00 | 0.09 | 0.09 | 81 | 1014.9 |
| 20260506042125 | 38 | 290 | 4.0 | 8.0 | 0.00 | 0.09 | 0.09 | 82 | 1014.9 |
| 20260506041625 | 37 | 300 | 3.0 | 8.0 | 0.00 | 0.09 | 0.09 | 82 | 1014.9 |
| 20260506041356 | 37 | 290 | 4.0 | 7.0 | 0.00 | 0.09 | 0.09 | 83 | 1014.8 |